GW3789 Weather Reports


Display with metric or nautical units.
time (UTC)temp
F
wind
direction
speed
MPH
gust
MPH
rain 1hr
in
rain 24hr
in
rain mn
in
humidity
%
barometer
mb
20260831101511 64 15 1.0 4.0 0.00 0.00 0.00 75 1024.5
20260831101009 65 277 1.0 3.0 0.00 0.00 0.00 70 1024.5
20260831100509 65 130 1.0 3.0 0.00 0.00 0.00 74 1024.5
20260831100018 64 179 1.0 4.0 0.00 0.00 0.00 74 1024.4
20260831095511 64 259 1.0 4.0 0.00 0.00 0.00 74 1024.4
20260831095012 63 212 1.0 4.0 0.00 0.00 0.00 76 1024.4
20260831094526 63 249 0.0 4.0 0.00 0.00 0.00 77 1024.4
20260831094014 63 255 1.0 2.0 0.00 0.00 0.00 76 1024.5
20260831093519 63 225 0.0 2.0 0.00 0.00 0.00 74 1024.4
20260831093035 63 115 1.0 2.0 0.00 0.00 0.00 74 1024.4
20260831092516 63 279 1.0 2.0 0.00 0.00 0.00 75 1024.4
20260831092009 63 344 0.0 2.0 0.00 0.00 0.00 76 1024.4
20260831091508 63 105 0.0 3.0 0.00 0.00 0.00 76 1024.3
20260831091010 63 83 0.0 4.0 0.00 0.00 0.00 76 1024.3
20260831090506 63 208 1.0 4.0 0.00 0.00 0.00 75 1024.4
20260831090012 64 236 0.0 2.0 0.00 0.00 0.00 74 1024.2
20260831085508 63 119 1.0 3.0 0.00 0.00 0.00 75 1024.2
20260831085010 63 105 1.0 3.0 0.00 0.00 0.00 76 1024.1
20260831084518 62 329 0.0 4.0 0.00 0.00 0.00 77 1024.1
20260831084011 62 53 1.0 4.0 0.00 0.00 0.00 77 1024.0
20260831083512 61 120 0.0 3.0 0.00 0.00 0.00 78 1024.0
20260831083040 62 335 0.0 2.0 0.00 0.00 0.00 76 1024.0
20260831082515 62 179 0.0 3.0 0.00 0.00 0.00 76 1024.0
20260831082016 62 161 1.0 3.0 0.00 0.00 0.00 74 1023.9
20260831081532 63 160 1.0 2.0 0.00 0.00 0.00 75 1023.9
20260831081019 63 113 0.0 3.0 0.00 0.00 0.00 77 1023.8
20260831080504 62 103 1.0 3.0 0.00 0.00 0.00 77 1023.7
20260831080014 62 143 0.0 3.0 0.00 0.00 0.00 78 1023.7
20260831075507 62 120 1.0 4.0 0.00 0.00 0.00 77 1023.7
20260831075008 61 136 1.0 4.0 0.00 0.00 0.00 77 1023.6
20260831074518 61 182 1.0 3.0 0.00 0.00 0.00 78 1023.6
20260831074013 61 136 1.0 4.0 0.00 0.00 0.00 80 1023.6
20260831073511 61 155 0.0 4.0 0.00 0.00 0.00 81 1023.6
20260831073020 60 120 1.0 3.0 0.00 0.00 0.00 81 1023.6
20260831072511 60 127 1.0 3.0 0.00 0.00 0.00 81 1023.6
20260831072014 60 139 1.0 3.0 0.00 0.00 0.00 81 1023.6
20260831071530 61 152 1.0 2.0 0.00 0.00 0.00 83 1023.5
20260831071016 60 148 0.0 2.0 0.00 0.00 0.00 84 1023.5
20260831070514 60 158 0.0 1.0 0.00 0.00 0.00 85 1023.5
20260831070036 59 160 0.0 1.0 0.00 0.00 0.00 86 1023.5
20260831065519 59 155 0.0 1.0 0.00 0.00 0.00 88 1023.5
20260831065019 58 156 0.0 1.0 0.00 0.00 0.00 90 1023.5
20260831064512 58 168 0.0 1.0 0.00 0.00 0.00 90 1023.4
20260831064009 57 164 0.0 1.0 0.00 0.00 0.00 90 1023.4
20260831063508 57 259 0.0 1.0 0.00 0.00 0.00 91 1023.4
20260831063019 56 169 0.0 1.0 0.00 0.00 0.00 93 1023.4
20260831062510 56 160 0.0 1.0 0.00 0.00 0.00 93 1023.2
20260831062014 56 162 0.0 1.0 0.00 0.00 0.00 93 1023.2
20260831061523 56 188 0.0 1.0 0.00 0.00 0.00 93 1023.2
20260831061012 56 178 0.0 0.0 0.00 0.00 0.00 94 1023.2
20260831060518 55 156 0.0 0.0 0.00 0.00 0.00 95 1023.2
20260831060027 55 157 0.0 0.0 0.00 0.00 0.00 94 1023.1
20260831055517 54 158 0.0 0.0 0.00 0.00 0.00 94 1023.1
20260831055021 54 162 0.0 0.0 0.00 0.00 0.00 94 1023.1
20260831054533 54 166 0.0 1.0 0.00 0.00 0.00 95 1023.0
20260831054018 54 159 0.0 1.0 0.00 0.00 0.00 94 1023.0
20260831053521 53 166 0.0 0.0 0.00 0.00 0.00 94 1023.0
20260831053036 53 166 0.0 0.0 0.00 0.00 0.00 94 1022.9
20260831052511 53 166 0.0 0.0 0.00 0.00 0.00 94 1022.9
20260831052011 54 166 0.0 0.0 0.00 0.00 0.00 94 1022.9
20260831051522 54 166 0.0 1.0 0.00 0.00 0.00 94 1022.9
20260831051014 54 166 0.0 1.0 0.00 0.00 0.00 94 1022.9
20260831050511 54 167 0.0 0.0 0.00 0.00 0.00 94 1022.9
20260831050042 54 167 0.0 0.0 0.00 0.00 0.00 94 1022.8
20260831045515 54 175 0.0 0.0 0.00 0.00 0.00 94 1022.7
20260831045015 54 177 0.0 0.0 0.00 0.00 0.00 94 1022.7
20260831044531 54 169 0.0 1.0 0.00 0.00 0.00 94 1022.6
20260831044015 54 169 0.0 1.0 0.00 0.00 0.00 94 1022.7
20260831043519 54 208 0.0 1.0 0.00 0.00 0.00 94 1022.6
20260831043029 54 240 0.0 1.0 0.00 0.00 0.00 94 1022.6
20260831042518 54 228 0.0 1.0 0.00 0.00 0.00 95 1022.6
20260831042016 53 271 0.0 1.0 0.00 0.00 0.00 94 1022.6
20260831041531 53 263 0.0 1.0 0.00 0.00 0.00 94 1022.6
20260831041020 53 265 0.0 1.0 0.00 0.00 0.00 94 1022.6
20260831040511 53 265 0.0 1.0 0.00 0.00 0.00 93 1022.6
20260831040026 53 265 0.0 0.0 0.00 0.00 0.00 93 1022.6
20260831035513 53 265 0.0 1.0 0.00 0.00 0.00 93 1022.6
20260831035014 53 266 0.0 1.0 0.00 0.00 0.00 93 1022.7
20260831034529 53 266 0.0 1.0 0.00 0.00 0.00 93 1022.6
20260831034016 53 266 0.0 1.0 0.00 0.00 0.00 93 1022.6
20260831033514 54 266 0.0 0.0 0.00 0.00 0.00 93 1022.7
20260831033032 54 266 0.0 1.0 0.00 0.00 0.00 93 1022.7
20260831032520 54 266 0.0 1.0 0.00 0.00 0.00 93 1022.6
20260831032018 54 266 0.0 1.0 0.00 0.00 0.00 93 1022.7
20260831031532 54 271 0.0 1.0 0.00 0.00 0.00 93 1022.7
20260831031017 54 283 0.0 1.0 0.00 0.00 0.00 93 1022.7
20260831030515 54 278 0.0 2.0 0.00 0.00 0.00 93 1022.7
20260831030017 54 276 1.0 2.0 0.00 0.00 0.00 93 1022.7
20260831025510 54 273 1.0 2.0 0.00 0.00 0.00 92 1022.7
20260831025012 55 271 1.0 2.0 0.00 0.00 0.00 92 1022.7
20260831024524 55 285 1.0 3.0 0.00 0.00 0.00 92 1022.7
20260831024014 55 293 0.0 3.0 0.00 0.00 0.00 92 1022.7
20260831023513 55 290 1.0 3.0 0.00 0.00 0.00 92 1022.7
20260831023028 55 275 1.0 4.0 0.00 0.00 0.00 93 1022.7
20260831022502 55 302 1.0 4.0 0.00 0.00 0.00 93 1022.6
20260831022003 55 261 0.0 2.0 0.00 0.00 0.00 92 1022.6
20260831021509 55 233 0.0 3.0 0.00 0.00 0.00 92 1022.6
20260831021007 55 266 1.0 3.0 0.00 0.00 0.00 92 1022.6
20260831020502 55 284 1.0 2.0 0.00 0.00 0.00 92 1022.5
20260831020014 55 271 0.0 2.0 0.00 0.00 0.00 91 1022.6
20260831015509 55 255 0.0 1.0 0.00 0.00 0.00 91 1022.6
20260831015013 55 273 0.0 1.0 0.00 0.00 0.00 90 1022.6
20260831014516 55 267 0.0 2.0 0.00 0.00 0.00 90 1022.5
20260831014011 55 278 0.0 2.0 0.00 0.00 0.00 90 1022.5
20260831013516 56 296 1.0 2.0 0.00 0.00 0.00 90 1022.5
20260831013024 56 248 0.0 3.0 0.00 0.00 0.00 89 1022.5
20260831012515 56 276 1.0 3.0 0.00 0.00 0.00 89 1022.5
20260831012017 56 274 1.0 3.0 0.00 0.00 0.00 88 1022.4
20260831011531 56 255 1.0 3.0 0.00 0.00 0.00 88 1022.4
20260831011016 56 267 1.0 3.0 0.00 0.00 0.00 87 1022.4
20260831010503 57 282 1.0 3.0 0.00 0.00 0.00 87 1022.4
20260831010026 57 274 1.0 3.0 0.00 0.00 0.00 87 1022.3
20260831005507 57 283 1.0 2.0 0.00 0.00 0.00 86 1022.2
20260831005019 57 269 0.0 2.0 0.00 0.00 0.00 85 1022.2
20260831004516 57 276 0.0 1.0 0.00 0.00 0.00 84 1022.2
20260831004007 58 270 1.0 2.0 0.00 0.00 0.00 84 1022.2
20260831003512 58 289 1.0 2.0 0.00 0.00 0.00 84 1022.1
20260831003020 58 274 1.0 2.0 0.00 0.00 0.00 84 1022.1
20260831002514 58 285 0.0 2.0 0.00 0.00 0.00 84 1022.0
20260831002012 59 262 0.0 1.0 0.00 0.00 0.00 83 1022.0
20260831001534 59 233 0.0 1.0 0.00 0.00 0.00 83 1022.0
20260831001015 59 271 0.0 1.0 0.00 0.00 0.00 83 1022.0
20260831000515 59 292 0.0 1.0 0.00 0.00 0.00 83 1022.0
20260831000029 59 143 0.0 1.0 0.00 0.00 0.00 83 1022.0
20260830235519 59 152 0.0 1.0 0.00 0.00 0.00 83 1021.9
20260830235006 59 141 0.0 1.0 0.00 0.00 0.00 83 1022.0
20260830234519 60 141 0.0 1.0 0.00 0.00 0.00 84 1022.0
20260830234008 60 144 0.0 1.0 0.00 0.00 0.00 84 1022.1
20260830233508 60 147 0.0 1.0 0.00 0.00 0.00 84 1022.1
20260830233016 60 147 0.0 1.0 0.00 0.00 0.00 84 1022.0
20260830232515 60 140 0.0 1.0 0.00 0.00 0.00 84 1022.0
20260830232012 60 147 0.0 1.0 0.00 0.00 0.00 84 1022.0
20260830231523 59 150 0.0 1.0 0.00 0.00 0.00 84 1022.0
20260830231013 59 276 0.0 1.0 0.00 0.00 0.00 84 1022.0
20260830230515 59 256 0.0 1.0 0.00 0.00 0.00 84 1022.0
20260830230034 59 262 0.0 1.0 0.00 0.00 0.00 84 1022.0
20260830225515 59 269 0.0 1.0 0.00 0.00 0.00 84 1022.0
20260830225019 59 270 0.0 0.0 0.00 0.00 0.00 85 1022.0
20260830224538 59 270 0.0 0.0 0.00 0.00 0.00 85 1022.0
20260830224019 59 270 0.0 0.0 0.00 0.00 0.00 85 1022.0
20260830223517 59 270 0.0 0.0 0.00 0.00 0.00 85 1022.1
20260830223018 60 270 0.0 0.0 0.00 0.00 0.00 85 1022.1
20260830222508 60 271 0.0 1.0 0.00 0.00 0.00 85 1022.1
20260830222011 60 271 0.0 1.0 0.00 0.00 0.00 85 1022.1
20260830221519 60 278 0.0 1.0 0.00 0.00 0.00 85 1022.2
20260830221013 60 289 0.0 1.0 0.00 0.00 0.00 85 1022.1
20260830220512 60 281 0.0 1.0 0.00 0.00 0.00 85 1022.1
20260830220031 60 298 0.0 1.0 0.00 0.00 0.00 85 1022.1
20260830215515 60 302 0.0 1.0 0.00 0.00 0.00 85 1022.0
20260830215015 61 274 0.0 1.0 0.00 0.00 0.00 85 1022.0
20260830214526 61 288 0.0 1.0 0.00 0.00 0.00 85 1021.9
20260830214016 61 262 0.0 1.0 0.00 0.00 0.00 86 1022.0
20260830213516 61 262 0.0 1.0 0.00 0.00 0.00 86 1021.9
20260830213031 61 262 0.0 1.0 0.00 0.00 0.00 86 1021.8
20260830212514 61 262 0.0 1.0 0.00 0.00 0.00 86 1021.8
20260830212020 61 262 0.0 1.0 0.00 0.00 0.00 87 1021.8
20260830211533 61 323 0.0 1.0 0.00 0.00 0.00 87 1021.8
20260830211010 61 272 0.0 2.0 0.00 0.00 0.00 87 1021.8
20260830210510 61 274 1.0 2.0 0.00 0.00 0.00 87 1021.8
20260830210022 61 280 0.0 1.0 0.00 0.00 0.00 87 1021.7
20260830205512 61 245 0.0 1.0 0.00 0.00 0.00 88 1021.7
20260830205017 61 245 0.0 1.0 0.00 0.00 0.00 88 1021.7
20260830204526 61 252 0.0 1.0 0.00 0.00 0.00 88 1021.7
20260830204018 61 277 0.0 1.0 0.00 0.00 0.00 88 1021.6
20260830203515 62 266 0.0 1.0 0.00 0.00 0.00 89 1021.6
20260830203030 62 266 0.0 1.0 0.00 0.00 0.00 89 1021.5
20260830202516 62 212 0.0 1.0 0.00 0.00 0.00 89 1021.3
20260830202016 62 212 0.0 3.0 0.00 0.00 0.00 88 1021.3
20260830201601 62 291 0.0 4.0 0.00 0.00 0.00 88 1021.3
20260830201021 62 275 2.0 4.0 0.00 0.00 0.00 89 1021.2
20260830200518 62 270 1.0 4.0 0.00 0.00 0.00 89 1021.1
20260830200034 63 262 1.0 4.0 0.00 0.00 0.00 89 1021.1
20260830195519 63 308 2.0 4.0 0.00 0.00 0.00 89 1021.0
20260830195008 63 310 1.0 5.0 0.00 0.00 0.00 89 1020.9
20260830194525 63 309 2.0 5.0 0.00 0.00 0.00 89 1020.8
20260830194012 63 312 2.0 5.0 0.00 0.00 0.00 89 1020.8
20260830193514 64 329 2.0 5.0 0.00 0.00 0.00 88 1020.7
20260830193033 64 274 2.0 6.0 0.00 0.00 0.00 87 1020.6
20260830192515 65 278 3.0 6.0 0.00 0.00 0.00 86 1020.5
20260830192015 65 312 2.0 7.0 0.00 0.00 0.00 85 1020.5
20260830191535 66 295 3.0 7.0 0.00 0.00 0.00 83 1020.4
20260830191022 67 286 2.0 6.0 0.00 0.00 0.00 81 1020.2
20260830190516 67 263 2.0 7.0 0.00 0.00 0.00 79 1020.0
20260830190037 67 265 4.0 7.0 0.00 0.00 0.00 78 1019.8
20260830185516 68 294 3.0 7.0 0.00 0.00 0.00 77 1019.7
20260830185009 68 300 2.0 5.0 0.00 0.00 0.00 76 1019.6
20260830184513 69 276 2.0 5.0 0.00 0.00 0.00 76 1019.4
20260830184007 69 296 1.0 2.0 0.00 0.00 0.00 75 1019.4
20260830183511 69 288 0.0 2.0 0.00 0.00 0.00 74 1019.3
20260830183016 69 274 0.0 4.0 0.00 0.00 0.00 74 1019.1
20260830182508 69 37 0.0 4.0 0.00 0.00 0.00 74 1019.2
20260830182008 70 227 0.0 3.0 0.00 0.00 0.00 73 1019.2
20260830181510 70 299 0.0 4.0 0.00 0.00 0.00 73 1019.2
20260830181004 70 282 1.0 4.0 0.00 0.00 0.00 72 1019.1
20260830180503 70 274 1.0 5.0 0.00 0.00 0.00 72 1019.1
20260830180006 71 282 2.0 5.0 0.00 0.00 0.00 71 1019.1
20260830175503 71 285 1.0 6.0 0.00 0.00 0.00 71 1019.1
20260830175007 72 270 3.0 6.0 0.00 0.00 0.00 70 1019.0
20260830174515 72 261 1.0 5.0 0.00 0.00 0.00 69 1019.1
20260830174006 73 252 2.0 5.0 0.00 0.00 0.00 69 1019.0
20260830173509 72 271 2.0 5.0 0.00 0.00 0.00 67 1018.9
20260830173025 73 270 2.0 5.0 0.00 0.00 0.00 65 1018.8
20260830172512 73 311 2.0 5.0 0.00 0.00 0.00 66 1018.7
20260830172011 72 271 2.0 5.0 0.00 0.00 0.00 66 1018.7
20260830171518 72 229 1.0 3.0 0.00 0.00 0.00 66 1018.7
20260830171011 73 259 1.0 6.0 0.00 0.00 0.00 65 1018.7
20260830170511 73 277 2.0 6.0 0.00 0.00 0.00 65 1018.7
20260830170016 73 276 1.0 7.0 0.00 0.00 0.00 64 1018.6
20260830165506 74 131 2.0 7.0 0.00 0.00 0.00 63 1018.5
20260830165003 74 290 0.0 4.0 0.00 0.00 0.00 63 1018.5
20260830164509 74 103 1.0 5.0 0.00 0.00 0.00 62 1018.4
20260830164011 74 77 0.0 5.0 0.00 0.00 0.00 61 1018.3
20260830163509 75 198 1.0 4.0 0.00 0.00 0.00 61 1018.3
20260830163012 76 83 1.0 4.0 0.00 0.00 0.00 60 1018.3
20260830162511 76 148 1.0 8.0 0.00 0.00 0.00 59 1018.3
20260830162011 76 59 2.0 8.0 0.00 0.00 0.00 57 1018.2
20260830161521 76 131 1.0 7.0 0.00 0.00 0.00 57 1018.3
20260830161011 76 245 1.0 5.0 0.00 0.00 0.00 59 1018.3
20260830160511 76 147 1.0 5.0 0.00 0.00 0.00 57 1018.4
20260830160021 76 307 0.0 4.0 0.00 0.00 0.00 57 1018.4
20260830155512 77 129 1.0 5.0 0.00 0.00 0.00 57 1018.4
20260830155012 77 302 2.0 9.0 0.00 0.00 0.00 56 1018.4
20260830154524 76 49 1.0 9.0 0.00 0.00 0.00 58 1018.4
20260830154014 77 167 2.0 9.0 0.00 0.00 0.00 56 1018.4
20260830153508 77 240 1.0 8.0 0.00 0.00 0.00 55 1018.4
20260830153029 76 50 1.0 8.0 0.00 0.00 0.00 57 1018.4
20260830152512 76 280 2.0 9.0 0.00 0.00 0.00 57 1018.5
20260830152010 77 283 3.0 9.0 0.00 0.00 0.00 55 1018.4
20260830151526 77 308 2.0 10.0 0.00 0.00 0.00 56 1018.4
20260830151012 76 302 2.0 10.0 0.00 0.00 0.00 57 1018.4
20260830150512 76 114 1.0 8.0 0.00 0.00 0.00 58 1018.4
20260830150023 77 146 2.0 8.0 0.00 0.00 0.00 56 1018.5
20260830145513 77 219 3.0 7.0 0.00 0.00 0.00 58 1018.5
20260830145013 77 234 2.0 6.0 0.00 0.00 0.00 60 1018.5
20260830144536 76 194 1.0 6.0 0.00 0.00 0.00 60 1018.5
20260830144013 77 323 2.0 6.0 0.00 0.00 0.00 57 1018.5
20260830143514 78 158 1.0 7.0 0.00 0.00 0.00 58 1018.6
20260830143024 77 174 2.0 7.0 0.00 0.00 0.00 59 1018.5
20260830142514 77 238 1.0 5.0 0.00 0.00 0.00 59 1018.6
20260830142012 78 277 1.0 5.0 0.00 0.00 0.00 58 1018.7
20260830141514 78 144 1.0 5.0 0.00 0.00 0.00 60 1018.7
20260830141007 77 131 1.0 5.0 0.00 0.00 0.00 60 1018.7
20260830140511 76 138 1.0 5.0 0.00 0.00 0.00 61 1018.8
20260830140022 76 336 2.0 5.0 0.00 0.00 0.00 59 1018.8
20260830135514 76 278 1.0 8.0 0.00 0.00 0.00 62 1018.9
20260830135013 76 248 3.0 8.0 0.00 0.00 0.00 59 1018.9
20260830134530 77 140 2.0 5.0 0.00 0.00 0.00 61 1019.0
20260830134015 76 143 1.0 8.0 0.00 0.00 0.00 60 1019.1
20260830133517 77 243 2.0 8.0 0.00 0.00 0.00 60 1019.2
20260830133039 77 67 1.0 6.0 0.00 0.00 0.00 61 1019.2
20260830132514 77 237 1.0 6.0 0.00 0.00 0.00 59 1019.2
20260830132014 77 229 2.0 6.0 0.00 0.00 0.00 60 1019.2
20260830131531 76 146 2.0 8.0 0.00 0.00 0.00 61 1019.2
20260830131016 76 206 2.0 8.0 0.00 0.00 0.00 61 1019.2
20260830130516 77 151 2.0 7.0 0.00 0.00 0.00 60 1019.3
20260830130018 76 83 1.0 5.0 0.00 0.00 0.00 60 1019.3
20260830125509 76 77 2.0 8.0 0.00 0.00 0.00 63 1019.4
20260830125015 76 221 3.0 9.0 0.00 0.00 0.00 61 1019.4
20260830124519 76 146 2.0 9.0 0.00 0.00 0.00 61 1019.4
20260830124006 76 151 1.0 4.0 0.00 0.00 0.00 60 1019.4
20260830123503 76 286 2.0 5.0 0.00 0.00 0.00 60 1019.5
20260830123003 75 240 1.0 6.0 0.00 0.00 0.00 63 1019.6
20260830122504 75 300 2.0 11.0 0.00 0.00 0.00 63 1019.6
20260830122003 74 162 1.0 11.0 0.00 0.00 0.00 64 1019.6
20260830121508 75 280 2.0 10.0 0.00 0.00 0.00 61 1019.7
20260830121009 74 97 2.0 10.0 0.00 0.00 0.00 62 1019.7
20260830120507 75 190 1.0 4.0 0.00 0.00 0.00 61 1019.7
20260830120013 75 232 1.0 5.0 0.00 0.00 0.00 62 1019.7
20260830115511 75 153 2.0 6.0 0.00 0.00 0.00 65 1019.7
20260830115009 74 347 1.0 6.0 0.00 0.00 0.00 64 1019.8
20260830114519 74 281 2.0 6.0 0.00 0.00 0.00 62 1019.8
20260830114009 74 264 1.0 6.0 0.00 0.00 0.00 62 1019.8
20260830113511 74 257 2.0 6.0 0.00 0.00 0.00 63 1019.9
20260830113029 74 141 1.0 7.0 0.00 0.00 0.00 65 1019.9
20260830112512 73 141 2.0 7.0 0.00 0.00 0.00 66 1019.9
20260830112003 74 264 2.0 6.0 0.00 0.00 0.00 66 1019.9
20260830111503 73 151 1.0 6.0 0.00 0.00 0.00 67 1020.0
20260830111003 73 245 1.0 5.0 0.00 0.00 0.00 69 1020.1
20260830110506 73 151 1.0 3.0 0.00 0.00 0.00 69 1020.1
20260830110007 73 272 1.0 3.0 0.00 0.00 0.00 68 1020.1
20260830105511 73 121 1.0 4.0 0.00 0.00 0.00 69 1020.1
20260830105007 73 272 1.0 4.0 0.00 0.00 0.00 68 1020.2
20260830104514 74 113 0.0 4.0 0.00 0.00 0.00 67 1020.2
20260830104008 74 275 1.0 4.0 0.00 0.00 0.00 69 1020.1
20260830103511 73 105 1.0 4.0 0.00 0.00 0.00 69 1020.2
20260830103020 73 25 1.0 3.0 0.00 0.00 0.00 71 1020.2
20260830102514 72 216 1.0 4.0 0.00 0.00 0.00 73 1020.2
20260830102012 71 119 2.0 7.0 0.00 0.00 0.00 73 1020.4
20260830101524 71 118 3.0 7.0 0.00 0.00 0.00 72 1020.5